Hourly Data Report for April 14, 2020

MIRAMICHI RCS
NEW BRUNSWICK
Current Station Operator: ECCC - MSC

47°00'34.000" N
65°27'54.000" W
33.00 m
8100989
71744
ACQ

Download Data

Hourly Data (April 2020)
Hourly Data Report for April 14, 2020
TIME
LST
Temp Definition
°C
Dew Point Definition
°C
Rel Hum Definition
%
Precip. Amount Definition
mm

Wind Dir Definition
10's deg

Wind Spd Definition
km/h
Visibility Definition
km
Stn Press Definition
kPa
Hmdx Definition


Wind Chill Definition


Weather Definition


00:00 9.5 9.2 98 LegendMM 18 26   99.28     LegendNANA
01:00 9.6 9.4 98 LegendMM 18 26   99.12     LegendNANA
02:00 9.1 8.6 96 LegendMM 20 28   99.10     LegendNANA
03:00 9.0 8.7 98 LegendMM 21 26   99.18     LegendNANA
04:00 8.7 8.6 99 LegendMM 23 26   99.28     LegendNANA
05:00 8.6 8.5 100 LegendMM 23 25   99.40     LegendNANA
06:00 8.9 8.2 96 LegendMM 24 25   99.58     LegendNANA
07:00 6.8 3.3 78 LegendMM 26 28   99.80     LegendNANA
08:00 6.7 1.9 71 LegendMM 25 27   99.88     LegendNANA
09:00 6.9 0.9 65 LegendMM 25 27   99.99     LegendNANA
10:00 7.4 -0.1 59 LegendMM 25 28   100.09     LegendNANA
11:00 8.3 -2.4 47 LegendMM 25 32   100.12     LegendNANA
12:00 9.0 -3.7 41 LegendMM 26 30   100.17     LegendNANA
13:00 9.5 -4.7 36 LegendMM 25 28   100.25     LegendNANA
14:00 8.9 -5.7 35 LegendMM 24 34   100.29     LegendNANA
15:00 10.0 -7.8 28 LegendMM 25 34   100.26     LegendNANA
16:00 10.1 -8.8 26 LegendMM 26 28   100.28     LegendNANA
17:00 9.8 -9.4 25 LegendMM 27 26   100.32     LegendNANA
18:00 8.3 -9.3 28 LegendMM 27 20   100.39     LegendNANA
19:00 6.1 -7.0 38 LegendMM 23 10   100.47     LegendNANA
20:00 5.9 -7.9 36 LegendMM 26 12   100.55     LegendNANA
21:00 4.5 -8.0 40 LegendMM 27 10   100.61     LegendNANA
22:00 2.8 -7.7 46 LegendMM 27 7   100.68     LegendNANA
23:00 0.6 -5.8 62 LegendMM 23 5   100.71     LegendNANA

Notes on Data Quality.

Legend

  • E = Estimated
  • M = Missing
  • NA = Not Available*
  • [empty] = Indicates an unobserved value
Date modified: